Flag for United Kingdom Weather past 2 weeks in Stockport, England, United Kingdom

Now
48 °F

Passing clouds.


Feels Like: 43 °F
Forecast: 52 / 58 °F
Wind: 12 mph from South

Location: Manchester Airport

Current Time: Oct 25, 2014 at 7:40:22 AM

Latest Report: Oct 25, 2014 at 6:50 AM


Visibility: 4 mi

Pressure: 29.92 "Hg

Humidity: 94%

Dew point: 46 °F

Location of StockportLocation

Historic Weather in Stockport — Graph

°F

Stockport temperature yesterday

Maximum temperature yesterday: 55 °F (at 12:20 AM)
Minimum temperature yesterday: 45 °F (at 9:50 PM)
Average temperature yesterday: 52 °F

Past Weeks' High & Low Weather Summary

 TemperatureHumidityPressure
High66 °F (Oct 18, 2:50 PM)100% (Oct 11, 3:20 AM)30.21 "Hg (Oct 11, 3:20 AM)
Low36 °F (Oct 12, 6:50 AM)58% (Oct 21, 1:20 PM)29.36 "Hg (Oct 21, 4:50 AM)
Average53 °F87%29.79 "Hg
* Reported Oct 10 6:20 AM — Oct 25 6:20 AM, Stockport, Weather by CustomWeather, © 2014

Note: Actual official high and low records may vary slightly from our data, if they occured in-between our weather recording intervals... More about our weather records

Advertising

Stockport weather history for previous 24 hours

 ConditionsComfort  
Time TempWeatherWind HumidityBarometerVisibility
6:20 AM
Oct 25
46 °FClear.10 mph100%29.92 "Hg10 mi
5:50 AM46 °FPassing clouds.9 mph100%29.92 "HgN/A
5:20 AM46 °FClear.12 mph93%29.92 "Hg10 mi
4:50 AM45 °FClear.9 mph100%29.92 "Hg10 mi
4:20 AM45 °FClear.8 mph100%29.92 "Hg10 mi
3:50 AM45 °FClear.9 mph100%29.92 "Hg10 mi
3:20 AM45 °FClear.8 mph100%29.92 "Hg10 mi
2:50 AM46 °FClear.8 mph93%29.92 "Hg10 mi
2:20 AM46 °FCool.7 mph93%29.92 "HgN/A
1:50 AM46 °FCool.6 mph100%29.95 "HgN/A
1:20 AM46 °FCool.8 mph93%29.95 "HgN/A
12:50 AM46 °FPassing clouds.9 mph93%29.95 "HgN/A
12:20 AM46 °FPassing clouds.10 mph100%29.92 "HgN/A
11:50 PM
Oct 24
46 °FPassing clouds.8 mph93%29.92 "HgN/A
11:20 PM46 °FCool.8 mph93%29.92 "HgN/A
10:50 PM45 °FClear.8 mph93%29.92 "Hg10 mi
10:20 PM45 °FClear.3 mph93%29.92 "Hg10 mi
9:50 PM45 °FClear.6 mph93%29.92 "Hg10 mi
9:20 PM46 °FClear.6 mph87%29.89 "Hg10 mi
8:50 PM46 °FClear.5 mph87%29.89 "Hg10 mi
8:20 PM46 °FClear.6 mph87%29.89 "Hg10 mi
7:50 PM46 °FClear.6 mph87%29.89 "Hg10 mi
7:20 PM48 °FClear.8 mph82%29.89 "Hg10 mi
6:50 PM50 °FSunny.9 mph76%29.89 "Hg10 mi
6:20 PM50 °FSunny.5 mph76%29.89 "Hg10 mi
5:50 PM52 °FSunny.6 mph77%29.86 "Hg10 mi
5:20 PM52 °FPassing clouds.6 mph82%29.86 "HgN/A
4:50 PM52 °FPartly sunny.8 mph77%29.86 "HgN/A
4:20 PM52 °FBroken clouds.12 mph82%29.86 "HgN/A
3:50 PM54 °FLight rain. Broken clouds.6 mph88%29.86 "HgN/A
3:20 PM55 °FBroken clouds.9 mph82%29.86 "HgN/A
2:50 PM55 °FPartly sunny.8 mph82%29.86 "HgN/A
2:20 PM55 °FBroken clouds.7 mph82%29.86 "HgN/A
1:50 PM55 °FScattered showers. Partly sunny.8 mph77%29.89 "HgN/A
1:20 PM55 °FDrizzle. Partly sunny.12 mph82%29.89 "HgN/A
12:50 PM55 °FScattered showers. Partly sunny.7 mph94%29.89 "HgN/A
12:20 PM55 °FScattered clouds.6 mph94%29.89 "HgN/A
11:50 AM55 °FScattered clouds.6 mph94%29.92 "HgN/A
11:20 AM54 °FBroken clouds.6 mph100%29.92 "HgN/A
10:50 AM54 °FBroken clouds.6 mph100%29.89 "HgN/A
10:20 AM54 °FScattered showers. Partly sunny.5 mph100%29.89 "HgN/A
9:50 AM52 °FDrizzle. Partly sunny.7 mph100%29.89 "HgN/A
9:20 AM52 °FDrizzle. Partly sunny.6 mph100%29.89 "Hg4 mi
8:50 AM52 °FPartly cloudy.5 mph100%29.89 "Hg1 mi
8:20 AM52 °FPartly cloudy.5 mph100%29.89 "Hg1 mi
7:50 AM52 °FPartly cloudy.3 mph100%29.89 "Hg1 mi
7:20 AM52 °FPartly cloudy.3 mph100%29.89 "Hg2 mi
Weather by CustomWeather, © 2014

See weather overviewHow to use our weather pages